Mombasa, Kenya

3:02 AM EAT on December 12, 2017 (GMT +0300)
Mombasa

Weather History for HKMO - October, 2011

Change the Weather History Date:

Monday, October 31, 2011

  Actual Average Record
Temperature  
Mean Temperature 80 °F -  
Max Temperature 86 °F 89 °F 89 °F (2005)
Min Temperature 75 °F 72 °F 71 °F (2000)
Cooling Degree Days 16    
Growing Degree Days 30 (Base 50)    
Moisture  
Dew Point 73 °F    
Average Humidity 80    
Maximum Humidity 94    
Minimum Humidity 52    
Precipitation  
Precipitation 0.00 in 0.14 in - ()
Sea Level Pressure  
Sea Level Pressure 29.82 in    
Wind  
Wind Speed 6 mph ()    
Max Wind Speed 128 mph    
Max Gust Speed -    
Visibility 8.1 miles    
Events      
Averages and records for this station are not official NWS values.
T = Trace of Precipitation, MM = Missing Value Source: Averaged Metar Reports

Daily Weather History Graph

Daily Weather History Graph

Search for Another Location

Airport or City:

Trip Planner

Search our weather history database for the weather conditions in past years. The results will help you decide how hot, cold, wet, or windy it might be!

Date:

Astronomy

Oct. 31, 2011 Rise Set
Actual Time 5:57 AM EAT 6:12 PM EAT
Civil Twilight 5:36 AM EAT 6:34 PM EAT
Nautical Twilight 5:11 AM EAT 6:58 PM EAT
Astronomical Twilight 4:46 AM EAT 7:23 PM EAT
Moon 10:14 AM EAT (10/31) 10:53 PM EAT (10/31)
Length of Visible Light 12h 57m
Length of Day
12h 14m
Waxing Crescent, 26% of the Moon is Illuminated
Oct 31
Waxing Crescent
Nov 2
First Quarter
Nov 10
Full
Nov 18
Last Quarter
Nov 25
New

Hourly Weather History & Observations

Time (EAT) Temp. Heat Index Dew Point Humidity Pressure Visibility Wind Dir Wind Speed Gust Speed Precip Events Conditions
1:00 AM 75.2 °F - 73.4 °F 94% 29.80 in 6.2 mi Calm Calm - N/A   Partly Cloudy
2:00 AM 75.2 °F - 73.4 °F 94% 29.77 in 6.2 mi Calm Calm - N/A   Scattered Clouds
3:00 AM 76 °F - 74 °F 90% 29.78 in 19 mi Calm Calm - -   Partly Cloudy
3:00 AM 75.2 °F - 73.4 °F 94% 29.77 in 6.2 mi Calm Calm - N/A   Scattered Clouds
4:00 AM 75.2 °F - 73.4 °F 94% 29.80 in 6.2 mi Calm Calm - N/A   Partly Cloudy
5:00 AM 75.2 °F - 73.4 °F 94% 29.80 in 6.2 mi Calm Calm - N/A   Scattered Clouds
6:00 AM 77.0 °F - 75.2 °F 94% 29.83 in 6.2 mi Calm Calm - N/A   Mostly Cloudy
7:00 AM 77.0 °F - 75.2 °F 94% 29.83 in 6.2 mi Calm Calm - N/A   Mostly Cloudy
8:00 AM 77.0 °F - 75.2 °F 94% 29.86 in 6.2 mi WSW 4.6 mph - N/A   Mostly Cloudy
9:00 AM 80 °F - 76 °F 84% 29.88 in 19 mi SW 4.6 mph - -   Mostly Cloudy
9:00 AM 80.6 °F 87.1 °F 77.0 °F 89% 29.89 in 6.2 mi SW 4.6 mph - N/A   Mostly Cloudy
10:00 AM 82.4 °F 87.2 °F 71.6 °F 70% 29.89 in 6.2 mi ESE 10.4 mph - N/A   Mostly Cloudy
11:00 AM 84.2 °F 89.6 °F 71.6 °F 66% 29.86 in 6.2 mi ESE 9.2 mph - N/A   Mostly Cloudy
12:00 PM 86.0 °F 91.8 °F 71.6 °F 62% 29.86 in 6.2 mi SSE 5.8 mph - N/A   Scattered Clouds
1:00 PM 86.0 °F 93.4 °F 73.4 °F 66% 29.83 in 6.2 mi SSE 11.5 mph - N/A   Scattered Clouds
2:00 PM 86.0 °F 91.8 °F 71.6 °F 62% 29.80 in 6.2 mi SSE 11.5 mph - N/A   Partly Cloudy
3:00 PM 86 °F - 71 °F 52% 29.79 in 19 mi South 12.7 mph - -   Scattered Clouds
3:00 PM 86.0 °F 91.8 °F 71.6 °F 62% 29.77 in 6.2 mi South 127.7 mph - N/A   Partly Cloudy
4:00 PM 86.0 °F 91.8 °F 71.6 °F 62% 29.77 in 6.2 mi SSE 4.6 mph - N/A   Partly Cloudy
5:00 PM 84.2 °F 89.6 °F 71.6 °F 66% 29.77 in 6.2 mi SSE 6.9 mph - N/A   Partly Cloudy
6:00 PM 82.4 °F 87.2 °F 71.6 °F 70% 29.80 in 6.2 mi SSE 5.8 mph - N/A   Partly Cloudy
7:00 PM 80.6 °F 85.4 °F 73.4 °F 79% 29.80 in 6.2 mi South 4.6 mph - N/A   Partly Cloudy
8:00 PM 78.8 °F - 73.4 °F 83% 29.80 in 6.2 mi South 3.5 mph - N/A   Partly Cloudy
9:00 PM 79 °F - 74 °F 81% 29.83 in 19 mi South 3.5 mph - -   Scattered Clouds
9:00 PM 78.8 °F - 73.4 °F 83% 29.83 in 6.2 mi South 3.5 mph - N/A   Partly Cloudy
10:00 PM 78.8 °F - 75.2 °F 89% 29.83 in 6.2 mi South 4.6 mph - N/A   Partly Cloudy
11:00 PM 78.8 °F - 75.2 °F 89% 29.83 in 6.2 mi South 3.5 mph - N/A   Partly Cloudy